Вернуться в каталог

KUIPER-00448

АктивенСвязьLEO
NORAD 68871·PAYLOAD·🇺🇸 United States

Запущен Apr 28, 2026 с Cape Canaveral Space Force Station

Loading…

Ближайшие Пролёты (ближайшие 24 часа)

TLE

СвежийSource: CelesTrak SupGP

Эпоха: Sep 14, 2026, 22:10 UTC

1 68871C 26095H   26257.92363426 -.00002974  00000+0 -42387-3 0  2576
2 68871  51.9023 206.1655 0003338  39.2964  71.6916 14.76330227    13

Отслеживайте KUIPER-00448 в реальном времени с AllMySat

Download on the App Store